| time (UTC) | temp C | wind direction | speed KPH | gust KPH | rain 1hr cm | rain 24hr cm | rain mn cm | humidity % | barometer mb |
| 20260505210008 | 30 | 196 | 11.3 | 27.4 | 0.00 | 0.00 | 0.00 | 68 | 1004.4 |
| 20260505204514 | 30 | 179 | 12.9 | 27.4 | 0.00 | 0.00 | 0.00 | 67 | 1004.9 |
| 20260505203021 | 30 | 184 | 11.3 | 22.5 | 0.00 | 0.00 | 0.00 | 69 | 1005.0 |
| 20260505201525 | 29 | 168 | 11.3 | 27.4 | 0.00 | 0.00 | 0.00 | 69 | 1005.1 |
| 20260505200027 | 29 | 193 | 14.5 | 27.4 | 0.00 | 0.00 | 0.00 | 67 | 1005.1 |
| 20260505194528 | 28 | 197 | 12.9 | 27.4 | 0.00 | 0.00 | 0.00 | 68 | 1005.3 |
| 20260505193033 | 28 | 195 | 16.1 | 29.0 | 0.00 | 0.00 | 0.00 | 69 | 1005.3 |
| 20260505191520 | 28 | 205 | 14.5 | 30.6 | 0.00 | 0.00 | 0.00 | 69 | 1005.4 |
| 20260505190007 | 28 | 212 | 12.9 | 29.0 | 0.00 | 0.00 | 0.00 | 69 | 1005.5 |
| 20260505184508 | 27 | 150 | 14.5 | 29.0 | 0.00 | 0.00 | 0.00 | 69 | 1005.7 |
| 20260505183014 | 27 | 175 | 16.1 | 29.0 | 0.00 | 0.00 | 0.00 | 70 | 1005.9 |
| 20260505181518 | 27 | 223 | 12.9 | 24.1 | 0.00 | 0.00 | 0.00 | 70 | 1006.0 |
| 20260505180037 | 26 | 211 | 12.9 | 24.1 | 0.00 | 0.00 | 0.00 | 70 | 1006.0 |
| 20260505174515 | 26 | 178 | 16.1 | 37.0 | 0.00 | 0.00 | 0.00 | 71 | 1005.9 |
| 20260505173012 | 26 | 200 | 19.3 | 35.4 | 0.00 | 0.00 | 0.00 | 70 | 1005.8 |
| 20260505171516 | 26 | 178 | 14.5 | 29.0 | 0.00 | 0.00 | 0.00 | 71 | 1005.9 |
| 20260505170026 | 25 | 209 | 22.5 | 38.6 | 0.00 | 0.00 | 0.00 | 71 | 1005.9 |
| 20260505164523 | 25 | 214 | 20.9 | 43.5 | 0.00 | 0.00 | 0.00 | 71 | 1005.7 |
| 20260505163008 | 25 | 213 | 14.5 | 40.2 | 0.00 | 0.00 | 0.00 | 71 | 1005.8 |
| 20260505161512 | 25 | 191 | 17.7 | 38.6 | 0.00 | 0.00 | 0.00 | 71 | 1006.0 |
| 20260505153034 | 23 | 191 | 19.3 | 32.2 | 0.00 | 0.00 | 0.00 | 72 | 1005.9 |
| 20260505151508 | 23 | 177 | 19.3 | 37.0 | 0.00 | 0.00 | 0.00 | 72 | 1006.0 |
| 20260505124511 | 21 | 180 | 16.1 | 32.2 | 0.00 | 0.00 | 0.00 | 78 | 1005.0 |
| 20260505123011 | 21 | 175 | 16.1 | 29.0 | 0.00 | 0.00 | 0.00 | 78 | 1004.9 |
| 20260505121514 | 21 | 188 | 17.7 | 33.8 | 0.00 | 0.00 | 0.00 | 78 | 1004.6 |
| 20260505120015 | 21 | 207 | 16.1 | 32.2 | 0.00 | 0.00 | 0.00 | 78 | 1004.7 |
| 20260505114512 | 21 | 186 | 17.7 | 37.0 | 0.00 | 0.00 | 0.00 | 77 | 1004.6 |
| 20260505113020 | 21 | 184 | 20.9 | 33.8 | 0.00 | 0.00 | 0.00 | 78 | 1004.6 |
| 20260505111514 | 21 | 189 | 17.7 | 32.2 | 0.00 | 0.00 | 0.00 | 77 | 1004.6 |
| 20260505101518 | 20 | 195 | 17.7 | 27.4 | 0.00 | 0.00 | 0.00 | 78 | 1004.8 |
| 20260505100021 | 20 | 215 | 16.1 | 27.4 | 0.00 | 0.00 | 0.00 | 78 | 1004.7 |
| 20260505094519 | 20 | 186 | 17.7 | 32.2 | 0.00 | 0.00 | 0.00 | 78 | 1004.9 |
| 20260505093026 | 21 | 177 | 14.5 | 29.0 | 0.00 | 0.00 | 0.00 | 78 | 1005.1 |
| 20260505091514 | 21 | 178 | 17.7 | 30.6 | 0.00 | 0.00 | 0.00 | 78 | 1005.1 |
| 20260505090020 | 21 | 184 | 14.5 | 32.2 | 0.00 | 0.00 | 0.00 | 78 | 1005.0 |
| 20260505084521 | 21 | 169 | 16.1 | 35.4 | 0.00 | 0.00 | 0.00 | 78 | 1005.1 |
| 20260505083024 | 20 | 175 | 16.1 | 38.6 | 0.00 | 0.00 | 0.00 | 78 | 1005.0 |
| 20260505081531 | 20 | 168 | 12.9 | 30.6 | 0.00 | 0.00 | 0.00 | 78 | 1005.2 |
| 20260505080032 | 20 | 190 | 17.7 | 35.4 | 0.00 | 0.00 | 0.00 | 78 | 1005.3 |
| 20260505074522 | 20 | 207 | 16.1 | 35.4 | 0.00 | 0.00 | 0.00 | 78 | 1005.5 |
| 20260505073006 | 20 | 183 | 20.9 | 30.6 | 0.00 | 0.00 | 0.00 | 78 | 1005.8 |
| 20260505071508 | 20 | 172 | 16.1 | 33.8 | 0.00 | 0.00 | 0.00 | 78 | 1006.1 |
| 20260505070014 | 21 | 213 | 19.3 | 32.2 | 0.00 | 0.00 | 0.00 | 78 | 1006.2 |
| 20260505064523 | 21 | 178 | 19.3 | 38.6 | 0.00 | 0.00 | 0.00 | 78 | 1006.7 |
| 20260505063026 | 21 | 181 | 19.3 | 33.8 | 0.00 | 0.00 | 0.00 | 78 | 1006.7 |
| 20260505061506 | 21 | 200 | 14.5 | 32.2 | 0.00 | 0.00 | 0.00 | 78 | 1006.7 |
| 20260505060012 | 21 | 182 | 17.7 | 32.2 | 0.00 | 0.00 | 0.00 | 78 | 1006.6 |
| 20260505054518 | 21 | 204 | 14.5 | 29.0 | 0.00 | 0.00 | 0.00 | 78 | 1006.6 |
| 20260505053022 | 21 | 179 | 12.9 | 32.2 | 0.00 | 0.00 | 0.00 | 77 | 1006.9 |
| 20260505051524 | 21 | 193 | 16.1 | 27.4 | 0.00 | 0.00 | 0.00 | 77 | 1007.0 |
| 20260505041531 | 22 | 173 | 11.3 | 20.9 | 0.00 | 0.00 | 0.00 | 76 | 1007.1 |
| 20260505040028 | 22 | 172 | 11.3 | 22.5 | 0.00 | 0.00 | 0.00 | 76 | 1007.1 |
| 20260505034509 | 22 | 178 | 12.9 | 25.7 | 0.00 | 0.00 | 0.00 | 75 | 1006.9 |
| 20260505033019 | 22 | 181 | 12.9 | 25.7 | 0.00 | 0.00 | 0.00 | 75 | 1007.0 |
| 20260505031522 | 22 | 188 | 14.5 | 25.7 | 0.00 | 0.00 | 0.00 | 75 | 1007.1 |
| 20260505030026 | 22 | 165 | 11.3 | 20.9 | 0.00 | 0.00 | 0.00 | 75 | 1007.1 |
| 20260505024540 | 22 | 175 | 9.7 | 25.7 | 0.00 | 0.00 | 0.00 | 75 | 1006.9 |
| 20260505023027 | 22 | 162 | 9.7 | 22.5 | 0.00 | 0.00 | 0.00 | 74 | 1006.9 |
| 20260505021520 | 22 | 177 | 9.7 | 20.9 | 0.00 | 0.00 | 0.00 | 74 | 1006.9 |
| 20260505020024 | 22 | 184 | 4.8 | 19.3 | 0.00 | 0.00 | 0.00 | 73 | 1006.7 |
| 20260505014536 | 23 | 171 | 8.0 | 24.1 | 0.00 | 0.00 | 0.00 | 73 | 1006.8 |
| 20260505013031 | 23 | 65 | 6.4 | 19.3 | 0.00 | 0.00 | 0.00 | 72 | 1006.7 |
| 20260505011533 | 23 | 166 | 9.7 | 22.5 | 0.00 | 0.00 | 0.00 | 72 | 1006.6 |
| 20260505010020 | 23 | 155 | 11.3 | 25.7 | 0.00 | 0.00 | 0.00 | 71 | 1006.6 |
| 20260505004524 | 23 | 172 | 12.9 | 30.6 | 0.00 | 0.00 | 0.00 | 70 | 1006.8 |
| 20260505003026 | 24 | 164 | 16.1 | 30.6 | 0.00 | 0.00 | 0.00 | 69 | 1006.7 |
| 20260505001515 | 24 | 201 | 16.1 | 25.7 | 0.00 | 0.00 | 0.00 | 69 | 1007.0 |
| 20260505000028 | 24 | 178 | 17.7 | 30.6 | 0.00 | 0.00 | 0.00 | 68 | 1007.0 |
| 20260504234522 | 25 | 192 | 17.7 | 43.5 | 0.00 | 0.00 | 0.00 | 67 | 1007.0 |
| 20260504233028 | 25 | 190 | 17.7 | 37.0 | 0.00 | 0.00 | 0.00 | 68 | 1007.2 |
| 20260504231535 | 25 | 182 | 19.3 | 45.1 | 0.00 | 0.00 | 0.00 | 67 | 1007.2 |
| 20260504230017 | 25 | 170 | 17.7 | 35.4 | 0.00 | 0.00 | 0.00 | 67 | 1007.4 |
| 20260504224522 | 25 | 193 | 20.9 | 40.2 | 0.00 | 0.00 | 0.00 | 65 | 1007.8 |
| 20260504223022 | 25 | 152 | 22.5 | 37.0 | 0.00 | 0.00 | 0.00 | 66 | 1007.7 |
| 20260504221524 | 25 | 195 | 20.9 | 38.6 | 0.00 | 0.00 | 0.00 | 66 | 1007.6 |
| 20260504220034 | 25 | 179 | 19.3 | 38.6 | 0.00 | 0.00 | 0.00 | 66 | 1007.9 |
| 20260504214516 | 26 | 182 | 19.3 | 38.6 | 0.00 | 0.00 | 0.00 | 65 | 1008.0 |
| 20260504213020 | 26 | 147 | 19.3 | 38.6 | 0.00 | 0.00 | 0.00 | 64 | 1008.4 |
| 20260504211528 | 26 | 171 | 19.3 | 40.2 | 0.00 | 0.00 | 0.00 | 65 | 1008.5 |